Location: Clinton NY
(43.0598°N, 75.3602°W)
Time: 19:43:31
(UTC-04:00)

Iridium 11 - Visible Passes

Search period start: 23 April 2017 00:00
Search period end: 03 May 2017 00:00
Orbit: 776 x 779 km, 86.4° (Epoch: 22 April)

Date Brightness Start Highest point End Pass type
(mag) Time Alt. Az. Time Alt. Az. Time Alt. Az.
23 Apr 8.3 04:19:58 10° ESE 04:23:17 17° ENE 04:26:36 10° NE visible
24 Apr 5.7 05:24:44 10° S 05:29:56 79° E 05:35:10 10° N visible
25 Apr 6.8 04:51:37 10° SSE 04:56:31 43° E 05:01:26 10° NNE visible
26 Apr 7.8 04:19:05 10° SE 04:23:12 24° E 04:27:21 10° NNE visible
27 Apr 8.4 03:47:32 10° ESE 03:50:02 14° ENE 03:52:31 10° NE visible
27 Apr 5.5 05:24:51 10° S 05:30:02 73° W 05:35:17 10° N visible
28 Apr 6.1 04:51:25 10° SSE 04:56:33 62° E 05:01:42 10° N visible
29 Apr 7.2 04:18:31 10° SSE 04:23:10 34° E 04:27:51 10° NNE visible
30 Apr 8.0 03:46:17 10° SE 03:49:55 19° E 03:53:34 10° NE visible
30 Apr 5.8 05:25:09 10° SSW 05:30:11 51° W 05:35:18 10° N visible
01 May 8.5 03:15:51 10° E 03:16:47 10° ENE 03:17:44 10° ENE visible
01 May 5.6 04:51:25 10° S 04:56:38 89° E 05:01:52 10° N visible
02 May 6.5 04:18:11 10° SSE 04:23:10 49° E 04:28:12 10° NNE visible
